Location: *
(51.0333°S, 178.4667°E)
Time: 07:27:33
(UTC+00:00)

PSLV R/B - Pass Details

Date: 15 November 2019
Orbit: 597 x 703 km, 97.9° (Epoch: 09 December)

Event Time Altitude Azimuth Distance (km) Brightness Sun altitude
Exits shadow 11:22:04 44° 38° (NE) 929 4.0 -20.2°
Maximum altitude 11:23:27 70° 108° (ESE) 717 3.8 -20.2°
Drops below altitude 10° 11:28:08 10° 190° (S) 2,152 7.5 -20.3°
Sets 11:30:27 0° 192° (SSW) 3,089 8.7 -20.3°
